* Astronomy

Members Login
Username 
 
Password 
    Remember Me  
Post Info TOPIC: Comet C/2010 E6 (STEREO)


L

Posts: 131433
Date:
Comet C/2010 E6 (STEREO)
Permalink  
 


Orbital elements:
C/2010 E6 (STEREO)
T 2010 Mar. 12.893 TT MPC
q 0.00480 (2000.0) P Q
Peri. 83.206 +0.179783 -0.982711
Node 4.381 -0.960942 -0.185066
e 1.0 Incl. 144.595 +0.210403 -0.005529
From 141 observations 2010 Mar. 8-12.

MPEC 2010 - L19


__________________
Page 1 of 1  sorted by
Quick Reply

Please log in to post quick replies.



Create your own FREE Forum
Report Abuse
Powered by ActiveBoard